| time (UTC) | temp F | wind direction | speed knots | gust knots | rain 1hr in | rain 24hr in | rain mn in | humidity % | barometer mb |
| 20260906214522 | 67 | 11 | 2.6 | 10.4 | 0.00 | 0.00 | 0.00 | 48 | 1019.9 |
| 20260906213019 | 67 | 342 | 3.5 | 9.6 | 0.00 | 0.00 | 0.00 | 47 | 1019.9 |
| 20260906211522 | 67 | 343 | 2.6 | 9.6 | 0.00 | 0.00 | 0.00 | 49 | 1019.9 |
| 20260906210009 | 68 | 355 | 4.3 | 10.4 | 0.00 | 0.00 | 0.00 | 53 | 1019.8 |
| 20260906204502 | 68 | 355 | 4.3 | 7.8 | 0.00 | 0.00 | 0.00 | 56 | 1019.6 |
| 20260906203112 | 69 | 45 | 5.2 | 9.6 | 0.00 | 0.00 | 0.00 | 54 | 1019.6 |
| 20260906201602 | 68 | 16 | 3.5 | 9.6 | 0.00 | 0.00 | 0.00 | 52 | 1019.6 |
| 20260906200051 | 68 | 318 | 3.5 | 8.7 | 0.00 | 0.00 | 0.00 | 53 | 1019.6 |
| 20260906194545 | 69 | 313 | 3.5 | 8.7 | 0.00 | 0.00 | 0.00 | 45 | 1019.6 |
| 20260906193100 | 68 | 28 | 7.0 | 14.8 | 0.00 | 0.00 | 0.00 | 56 | 1019.5 |
| 20260906191540 | 68 | 41 | 5.2 | 12.2 | 0.00 | 0.00 | 0.00 | 54 | 1019.4 |
| 20260906190032 | 68 | 330 | 6.1 | 11.3 | 0.00 | 0.00 | 0.00 | 54 | 1019.4 |
| 20260906184528 | 68 | 37 | 3.5 | 7.8 | 0.00 | 0.00 | 0.00 | 44 | 1019.6 |
| 20260906183026 | 69 | 28 | 3.5 | 7.8 | 0.00 | 0.00 | 0.00 | 49 | 1019.4 |
| 20260906181538 | 68 | 5 | 4.3 | 10.4 | 0.00 | 0.00 | 0.00 | 48 | 1019.6 |
| 20260906180021 | 69 | 59 | 2.6 | 10.4 | 0.00 | 0.00 | 0.00 | 56 | 1019.7 |
| 20260906174510 | 68 | 13 | 3.5 | 11.3 | 0.00 | 0.00 | 0.00 | 56 | 1019.7 |
| 20260906173007 | 69 | 339 | 3.5 | 11.3 | 0.00 | 0.00 | 0.00 | 52 | 1019.6 |
| 20260906171610 | 68 | 25 | 5.2 | 9.6 | 0.00 | 0.00 | 0.00 | 51 | 1019.7 |
| 20260906170107 | 68 | 346 | 5.2 | 10.4 | 0.00 | 0.00 | 0.00 | 53 | 1019.7 |
| 20260906164551 | 69 | 24 | 7.0 | 11.3 | 0.00 | 0.00 | 0.00 | 54 | 1019.6 |
| 20260906163047 | 68 | 80 | 7.8 | 13.0 | 0.00 | 0.00 | 0.00 | 52 | 1019.5 |
| 20260906161542 | 68 | 36 | 4.3 | 11.3 | 0.00 | 0.00 | 0.00 | 45 | 1019.6 |
| 20260906160038 | 69 | 40 | 6.1 | 11.3 | 0.00 | 0.00 | 0.00 | 37 | 1019.6 |
| 20260906154541 | 68 | 17 | 5.2 | 11.3 | 0.00 | 0.00 | 0.00 | 30 | 1019.6 |
| 20260906153033 | 68 | 47 | 5.2 | 10.4 | 0.00 | 0.00 | 0.00 | 29 | 1019.6 |
| 20260906151525 | 68 | 59 | 2.6 | 8.7 | 0.00 | 0.00 | 0.00 | 23 | 1019.5 |
| 20260906150022 | 67 | 45 | 3.5 | 8.7 | 0.00 | 0.00 | 0.00 | 3 | 1019.6 |
| 20260906144515 | 67 | 88 | 4.3 | 7.8 | 0.00 | 0.00 | 0.00 | 8 | 1019.6 |
| 20260906143014 | 67 | 63 | 4.3 | 9.6 | 0.00 | 0.00 | 0.00 | 100 | 1019.6 |
| 20260906141506 | 66 | 82 | 5.2 | 9.6 | 0.00 | 0.00 | 0.00 | 100 | 1019.5 |
| 20260906140002 | 65 | 84 | 4.3 | 10.4 | 0.00 | 0.00 | 0.00 | 100 | 1019.4 |
| 20260906134558 | 65 | 82 | 4.3 | 10.4 | 0.00 | 0.00 | 0.00 | 100 | 1019.1 |
| 20260906133105 | 65 | 76 | 7.0 | 12.2 | 0.00 | 0.00 | 0.00 | 100 | 1019.3 |
| 20260906131548 | 64 | 84 | 8.7 | 11.3 | 0.00 | 0.00 | 0.00 | 100 | 1019.1 |
| 20260906130051 | 64 | 79 | 5.2 | 12.2 | 0.00 | 0.00 | 0.00 | 100 | 1019.1 |
| 20260906124543 | 63 | 78 | 4.3 | 9.6 | 0.00 | 0.00 | 0.00 | 100 | 1019.0 |
| 20260906123039 | 63 | 71 | 4.3 | 7.8 | 0.00 | 0.00 | 0.00 | 100 | 1018.9 |
| 20260906121531 | 62 | 54 | 1.7 | 4.3 | 0.00 | 0.00 | 0.00 | 100 | 1018.8 |
| 20260906120026 | 62 | 57 | 1.7 | 5.2 | 0.00 | 0.00 | 0.00 | 100 | 1018.6 |
| 20260906114540 | 62 | 22 | 0.0 | 2.6 | 0.00 | 0.00 | 0.00 | 100 | 1018.6 |
| 20260906113018 | 61 | 355 | 0.0 | 1.7 | 0.00 | 0.00 | 0.00 | 100 | 1018.3 |
| 20260906111513 | 61 | 355 | 0.0 | 1.7 | 0.00 | 0.00 | 0.00 | 100 | 1018.2 |
| 20260906110011 | 61 | 335 | 0.0 | 2.6 | 0.00 | 0.00 | 0.00 | 100 | 1018.1 |
| 20260906104504 | 61 | 9 | 0.0 | 1.7 | 0.00 | 0.00 | 0.00 | 100 | 1017.9 |
| 20260906103101 | 60 | 306 | 0.0 | 2.6 | 0.00 | 0.00 | 0.00 | 100 | 1017.9 |
| 20260906101557 | 60 | 312 | 0.9 | 2.6 | 0.00 | 0.00 | 0.00 | 100 | 1017.6 |
| 20260906100052 | 59 | 263 | 0.0 | 1.7 | 0.00 | 0.00 | 0.00 | 100 | 1017.4 |
| 20260906094601 | 58 | 255 | 0.0 | 0.0 | 0.00 | 0.00 | 0.00 | 100 | 1017.3 |
| 20260906093105 | 59 | 255 | 0.0 | 1.7 | 0.00 | 0.00 | 0.00 | 100 | 1017.2 |
| 20260906091540 | 60 | 255 | 0.0 | 1.7 | 0.00 | 0.00 | 0.00 | 100 | 1017.0 |
| 20260906090034 | 60 | 277 | 0.9 | 2.6 | 0.00 | 0.00 | 0.00 | 100 | 1016.7 |
| 20260906084530 | 60 | 175 | 0.0 | 0.9 | 0.00 | 0.00 | 0.00 | 100 | 1016.5 |
| 20260906083041 | 58 | 195 | 0.0 | 0.0 | 0.00 | 0.00 | 0.00 | 100 | 1016.4 |
| 20260906081521 | 60 | 195 | 0.0 | 0.0 | 0.00 | 0.00 | 0.00 | 100 | 1016.4 |
| 20260906080017 | 60 | 195 | 0.0 | 0.0 | 0.00 | 0.00 | 0.00 | 100 | 1016.4 |
| 20260906074516 | 61 | 195 | 0.0 | 0.0 | 0.00 | 0.00 | 0.00 | 100 | 1016.3 |
| 20260906073015 | 61 | 195 | 0.0 | 0.0 | 0.00 | 0.00 | 0.00 | 100 | 1016.3 |
| 20260906071504 | 62 | 195 | 0.0 | 1.7 | 0.00 | 0.00 | 0.00 | 100 | 1016.2 |
| 20260906070059 | 62 | 195 | 0.0 | 0.9 | 0.00 | 0.00 | 0.00 | 100 | 1016.3 |
| 20260906064555 | 62 | 195 | 0.0 | 0.9 | 0.00 | 0.00 | 0.00 | 100 | 1016.4 |
| 20260906063052 | 62 | 195 | 0.0 | 0.9 | 0.00 | 0.00 | 0.00 | 100 | 1016.4 |
| 20260906061547 | 62 | 103 | 0.0 | 0.9 | 0.00 | 0.00 | 0.00 | 100 | 1016.5 |
| 20260906060042 | 62 | 103 | 0.0 | 0.0 | 0.00 | 0.00 | 0.00 | 100 | 1016.4 |
| 20260906054541 | 62 | 5 | 0.0 | 0.9 | 0.00 | 0.00 | 0.00 | 100 | 1016.4 |
| 20260906053036 | 61 | 5 | 0.0 | 0.9 | 0.00 | 0.00 | 0.00 | 100 | 1016.6 |
| 20260906051532 | 61 | 5 | 0.0 | 0.0 | 0.00 | 0.00 | 0.00 | 100 | 1016.7 |
| 20260906050025 | 62 | 5 | 0.0 | 0.9 | 0.00 | 0.00 | 0.00 | 100 | 1016.5 |
| 20260906044520 | 62 | 5 | 0.0 | 0.9 | 0.00 | 0.00 | 0.00 | 100 | 1016.4 |
| 20260906043017 | 63 | 5 | 0.0 | 0.9 | 0.00 | 0.00 | 0.00 | 100 | 1016.5 |
| 20260906041511 | 63 | 5 | 0.0 | 0.0 | 0.00 | 0.00 | 0.00 | 100 | 1016.4 |
| 20260906040015 | 63 | 5 | 0.0 | 0.0 | 0.00 | 0.00 | 0.00 | 100 | 1016.5 |
| 20260906034502 | 63 | 5 | 0.0 | 0.9 | 0.00 | 0.00 | 0.00 | 100 | 1016.3 |
| 20260906033058 | 63 | 5 | 0.0 | 0.0 | 0.00 | 0.00 | 0.00 | 100 | 1016.2 |
| 20260906031553 | 63 | 5 | 0.0 | 0.0 | 0.00 | 0.00 | 0.00 | 100 | 1016.2 |
| 20260906030050 | 63 | 5 | 0.0 | 0.9 | 0.00 | 0.00 | 0.00 | 100 | 1016.2 |
| 20260906024550 | 64 | 360 | 0.0 | 0.9 | 0.00 | 0.00 | 0.00 | 100 | 1016.1 |
| 20260906023041 | 64 | 5 | 0.0 | 0.9 | 0.00 | 0.00 | 0.00 | 100 | 1016.0 |
| 20260906021536 | 64 | 5 | 0.0 | 0.9 | 0.00 | 0.00 | 0.00 | 100 | 1016.0 |
| 20260906020032 | 64 | 5 | 0.0 | 1.7 | 0.00 | 0.00 | 0.00 | 100 | 1015.9 |
| 20260906014539 | 64 | 5 | 0.0 | 0.9 | 0.00 | 0.00 | 0.00 | 100 | 1015.8 |
| 20260906013037 | 64 | 5 | 0.0 | 0.0 | 0.00 | 0.00 | 0.00 | 100 | 1015.7 |
| 20260906011518 | 65 | 9 | 0.0 | 0.0 | 0.00 | 0.00 | 0.00 | 100 | 1015.6 |
| 20260906010014 | 65 | 9 | 0.0 | 0.0 | 0.00 | 0.00 | 0.00 | 100 | 1015.6 |
| 20260906004509 | 65 | 9 | 0.0 | 0.9 | 0.00 | 0.00 | 0.00 | 100 | 1015.6 |
| 20260906003005 | 66 | 5 | 0.0 | 0.9 | 0.00 | 0.00 | 0.00 | 100 | 1015.4 |
| 20260906001501 | 66 | 5 | 0.0 | 1.7 | 0.00 | 0.00 | 0.00 | 100 | 1015.5 |
| 20260906000057 | 66 | 346 | 0.0 | 2.6 | 0.00 | 0.00 | 0.00 | 100 | 1015.4 |
| 20260905234558 | 66 | 322 | 0.0 | 3.5 | 0.00 | 0.00 | 0.00 | 1 | 1015.3 |
| 20260905233049 | 67 | 5 | 1.7 | 3.5 | 0.00 | 0.00 | 0.00 | 9 | 1015.4 |
| 20260905231544 | 68 | 360 | 2.6 | 4.3 | 0.00 | 0.00 | 0.00 | 22 | 1015.4 |
| 20260905230039 | 69 | 42 | 1.7 | 3.5 | 0.00 | 0.00 | 0.00 | 27 | 1015.4 |
| 20260905224535 | 69 | 5 | 1.7 | 3.5 | 0.00 | 0.00 | 0.00 | 30 | 1015.3 |
| 20260905223030 | 70 | 327 | 1.7 | 5.2 | 0.00 | 0.00 | 0.00 | 31 | 1015.3 |
| 20260905221525 | 70 | 9 | 2.6 | 6.1 | 0.00 | 0.00 | 0.00 | 31 | 1015.2 |
| 20260905220021 | 71 | 41 | 4.3 | 8.7 | 0.00 | 0.00 | 0.00 | 35 | 1015.0 |